Springfield, CO

6:20 PM MDT on March 30, 2017 (GMT -0600)
Springfield

Weather History for KSPD - September, 2012

Change the Weather History Date:

Tuesday, September 25, 2012

  Actual Average Record
Temperature  
Mean Temperature 69 °F -  
Max Temperature 82 °F 77 °F 93 °F (1998)
Min Temperature 55 °F 48 °F 27 °F (2000)
Degree Days  
Heating Degree Days 0 5  
Month to date heating degree days 53 55  
Since 1 July heating degree days 53 62  
Cooling Degree Days 4 2  
Month to date cooling degree days 117 108  
Year to date cooling degree days 1416 1009  
Growing Degree Days 19 (Base 50)    
Moisture  
Dew Point 40 °F    
Average Humidity 44    
Maximum Humidity 67    
Minimum Humidity 21    
Precipitation  
Precipitation 0.00 in 0.04 in 0.00 in (2017)
Month to date precipitation 0.21  
Year to date precipitation 4.81  
Sea Level Pressure  
Sea Level Pressure 29.76 in    
Wind  
Wind Speed 6 mph (NNW)    
Max Wind Speed 15 mph    
Max Gust Speed 18 mph    
T = Trace of Precipitation, MM = Missing Value Source: NWS Daily Summary

Daily Weather History Graph

Daily Weather History Graph

Search for Another Location

Airport or City:

Trip Planner

Search our weather history database for the weather conditions in past years. The results will help you decide how hot, cold, wet, or windy it might be!

Date:

Astronomy

Sep. 25, 2012 Rise Set
Actual Time 6:41 AM MDT 6:41 PM MDT
Civil Twilight 6:15 AM MDT 7:07 PM MDT
Nautical Twilight 5:44 AM MDT 7:38 PM MDT
Astronomical Twilight 5:14 AM MDT 8:08 PM MDT
Moon 4:03 PM MDT (9/25) 2:10 AM MDT (9/25)
Length of Visible Light 12h 52m
Length of Day
12h 00m
Waxing Gibbous, 80% of the Moon is Illuminated
Sep 25
Waxing Gibbous
Sep 29
Full
Oct 8
Last Quarter
Oct 15
New
Oct 21
First Quarter

Hourly Weather History & Observations

Time (MDT) Temp. Dew Point Humidity Pressure Visibility Wind Dir Wind Speed Gust Speed Precip Events Conditions
12:56 AM 62.1 °F 41.0 °F 46% 29.74 in - West 3.5 mph - N/A   Unknown
1:56 AM 61.0 °F 41.0 °F 48% 29.74 in - West 5.8 mph - N/A   Unknown
2:56 AM 62.1 °F 39.0 °F 43% 29.74 in - West 3.5 mph - N/A   Unknown
3:56 AM 57.9 °F 37.9 °F 47% 29.75 in - Calm Calm - N/A   Unknown
4:56 AM 63.0 °F 37.9 °F 40% 29.75 in - NW 5.8 mph - N/A   Unknown
5:56 AM 59.0 °F 37.9 °F 46% 29.76 in - NNW 3.5 mph - N/A   Unknown
6:56 AM 59.0 °F 39.0 °F 48% 29.76 in - NW 6.9 mph - N/A   Unknown
7:56 AM 62.1 °F 39.9 °F 44% 29.76 in - North 5.8 mph - N/A   Unknown
8:56 AM 69.1 °F 41.0 °F 36% 29.76 in - NNW 12.7 mph - N/A   Unknown
9:56 AM 72.0 °F 41.0 °F 33% 29.77 in - NNW 11.5 mph - N/A   Unknown
10:56 AM 77.0 °F 41.0 °F 28% 29.76 in - Variable 6.9 mph - N/A   Unknown
11:56 AM 79.0 °F 41.0 °F 26% 29.74 in - Calm Calm - N/A   Unknown
12:56 PM 80.1 °F 39.9 °F 24% 29.74 in - North 6.9 mph - N/A   Unknown
1:56 PM 81.0 °F 39.9 °F 23% 29.72 in - Variable 5.8 mph - N/A   Unknown
2:56 PM 80.1 °F 39.0 °F 23% 29.70 in - Variable 3.5 mph - N/A   Unknown
3:56 PM 79.0 °F 37.9 °F 23% 29.71 in - Calm Calm - N/A   Unknown
4:56 PM 80.1 °F 37.0 °F 21% 29.70 in - NNW 10.4 mph - N/A   Unknown
5:56 PM 77.0 °F 37.0 °F 24% 29.73 in - NW 6.9 mph - N/A   Unknown
6:56 PM 70.0 °F 37.0 °F 30% 29.75 in - NNW 4.6 mph - N/A   Unknown
7:56 PM 70.0 °F 37.0 °F 30% 29.76 in - North 3.5 mph - N/A   Unknown
8:56 PM 66.9 °F 43.0 °F 42% 29.80 in - ENE 5.8 mph - N/A   Unknown
9:56 PM 63.0 °F 44.1 °F 50% 29.83 in - NNW 11.5 mph - N/A   Unknown
10:56 PM 60.1 °F 44.1 °F 55% 29.83 in - North 12.7 mph - N/A   Unknown
11:56 PM 57.9 °F 46.0 °F 65% 29.83 in - NNE 12.7 mph - N/A   Unknown